Temperature
18 19 19 19 19 18 17 16 16 17 16 16 15 15 15 15 16 17 17 17 18 18 19 19 19 19 19 19 19 18 18 17 17 16 16 16 15 15 15 15 14 14 14 14
18 18 18 18 18 17 17 17 16 16 16 15 15 15 15 15 15 15 16 16 17 17 18 18 19 19 19 19 19 18 18 17 17 16 16 16 16 15 15 15 15 14 14 14
16 16 18 17 18 17 17 16 16 16 15 14 14 14 14 15 15 15 15 16 16 16 17 17 18 18 19 18 18 18 17 17 17 16 16 16 16 15 15 15 15 15 15 14
14 17 18 17 17 17 16 16 15 15 14 14 14 15 15 15 15 15 15 15 16 16 16 17 17 18 18 18 18 17 17 17 16 16 16 16 16 16 16 15 15 15 15 15
13 15 16 16 17 16 16 16 15 14 14 14 15 15 14 15 15 15 15 15 15 15 16 16 17 17 17 17 17 16 16 16 16 16 16 16 16 16 16 15 15 15 15 15
12 16 16 17 17 17 16 16 15 14 14 14 14 13 13 14 14 15 15 15 15 15 15 16 15 15 16 16 16 16 15 16 16 16 16 16 16 16 16 16 15 15 15 15
12 14 14 15 15 16 16 16 15 15 15 14 14 14 15 14 14 14 14 14 14 14 14 14 14 14 15 15 15 15 15 15 16 16 16 16 16 16 16 16 15 15 15 15
11 13 14 15 15 15 15 15 15 15 15 15 15 14 14 14 14 14 14 14 14 13 13 13 13 13 13 13 13 14 14 15 15 15 16 16 16 16 16 15 15 15 15 15
12 13 14 14 15 16 16 15 15 15 15 15 14 14 14 14 14 13 13 13 13 13 12 12 12 12 12 12 12 13 13 14 14 15 15 15 15 16 15 15 15 15 15 15
11 12 13 14 15 15 16 16 15 15 15 14 14 14 14 13 13 13 13 12 12 12 12 12 11 11 11 11 11 12 12 12 13 13 14 14 14 15 15 15 15 15 15 15
10 11 13 14 15 15 15 15 15 14 14 14 14 13 13 13 12 12 12 12 11 11 11 11 11 10 10 10 10 11 11 11 12 12 12 13 13 14 14 14 14 14 15 15
11 12 11 14 15 14 14 14 14 14 13 13 13 13 12 12 12 11 11 11 11 11 10 10 10 10 10 10 10 10 10 10 10 11 11 11 12 13 13 13 14 14 14 14
15 14 14 14 14 14 14 14 13 13 13 13 12 12 12 12 11 11 10 10 10 10 10 9 9 9 9 9 9 9 9 9 9 10 10 10 11 11 12 13 13 13 13 13
14 13 13 13 13 13 13 13 13 13 12 12 12 12 11 11 11 10 10 10 9 9 9 9 9 9 9 8 8 8 8 8 8 9 9 9 9 10 10 11 12 13 13 13
13 13 13 13 13 13 13 12 12 12 12 12 11 11 11 10 10 10 10 9 9 9 9 8 8 8 8 8 8 8 8 8 8 8 8 8 9 9 9 10 10 11 12 12
13 13 12 12 12 12 12 12 12 12 11 11 11 10 10 10 10 9 9 9 8 8 8 8 8 8 8 8 7 7 7 7 7 7 7 8 8 8 8 9 9 10 10 11
12 12 12 12 12 12 12 12 11 11 11 11 10 10 9 9 9 9 8 8 8 8 8 7 7 7 7 7 7 7 7 7 7 7 7 7 7 7 8 8 8 9 9 10
12 12 12 12 12 12 11 11 11 11 10 10 10 9 9 9 8 8 8 8 8 7 7 7 7 7 7 7 7 6 6 6 6 6 6 6 6 6 7 7 7 8 9 9
12 12 12 12 11 11 11 11 11 10 10 9 9 9 8 8 8 8 7 7 7 7 7 7 7 6 6 6 6 6 6 6 6 6 5 5 6 6 6 6 7 7 8 8
12 12 12 11 11 11 10 10 10 9 9 9 8 8 8 8 7 7 7 7 7 7 6 6 6 6 6 6 6 6 5 5 5 5 5 5 5 5 5 6 6 6 7 7
11 11 11 11 10 10 10 10 9 9 9 8 8 8 7 7 7 7 6 6 6 6 6 6 6 6 5 5 5 5 5 5 4 4 4 4 4 4 5 5 6 6 6 6
10 10 10 10 10 9 9 9 9 8 8 8 7 7 7 7 6 6 6 6 6 6 6 6 5 5 5 5 5 4 4 4 4 4 4 4 4 4 4 4 5 5 6 6
10 9 9 9 9 8 8 8 8 8 7 7 7 7 6 6 6 6 6 6 6 6 5 5 5 5 5 4 4 4 4 4 4 4 4 3 3 3 3 4 4 5 5 5
9 8 8 8 8 8 8 7 7 7 7 7 6 6 6 6 6 6 6 6 5 5 5 5 5 4 4 4 4 4 3 3 3 3 3 3 3 3 3 3 4 4 5 5
8 8 7 7 7 7 7 7 6 6 6 6 6 6 6 6 6 6 5 5 5 5 5 5 5 4 4 4 4 3 3 3 3 2 2 2 2 2 3 3 3 3 4 4
7 7 7 7 7 6 6 6 6 6 6 6 6 6 6 6 5 5 5 5 5 5 5 4 4 4 4 3 3 3 3 2 2 2 2 2 2 2 2 2 3 3 4 4
6 6 6 6 6 6 6 6 6 6 6 5 5 5 5 5 5 5 5 5 5 4 4 4 4 3 3 3 2 2 2 2 2 2 2 2 2 2 2 2 3 3 3 4
Wind_Speed
2 1 1 2 3 4 6 7 8 7 6 5 1 1 3 5 7 10 11 12 11 10 9 8 7 5 4 5 5 5 6 7 9 8 7 7 7 7 6 6 7 6 5 5
2 2 2 3 5 4 4 4 5 4 4 3 3 3 5 6 8 10 10 10 10 11 11 11 9 7 5 5 4 5 6 8 7 6 6 7 8 7 7 7 6 6 6 6
2 4 3 5 5 5 4 3 6 7 6 5 4 5 4 4 6 7 7 8 9 9 9 10 10 8 6 5 3 4 6 6 6 6 7 8 7 7 8 8 7 7 7 7
1 1 5 6 2 3 4 1 1 3 5 7 6 5 4 3 4 5 6 7 8 8 9 9 9 9 7 4 2 2 4 5 5 6 7 7 7 8 9 7 7 8 8 8
3 2 6 5 1 4 4 0 1 4 5 5 4 4 4 4 3 3 4 4 5 6 6 8 10 10 8 7 5 4 5 6 6 6 7 7 8 9 8 7 8 8 6 8
4 3 6 6 2 2 4 2 3 5 6 5 5 2 2 2 2 2 3 4 5 6 6 8 9 8 8 8 8 8 8 8 7 6 7 9 10 9 7 7 9 8 8 8
4 4 7 5 2 3 4 6 3 5 5 6 5 5 3 1 0 1 2 4 4 5 7 7 7 7 8 8 9 9 9 8 7 6 7 8 8 7 6 7 7 8 8 8
6 5 8 2 3 5 5 2 4 5 4 4 4 3 2 1 0 2 3 4 5 5 6 7 7 7 8 8 9 9 9 8 8 7 7 6 6 6 6 7 8 8 7 7
8 7 3 2 3 2 4 4 4 4 4 5 4 3 2 1 0 2 2 3 4 4 5 7 7 6 7 9 9 9 9 10 9 8 6 6 5 6 5 6 8 8 8 8
4 6 4 3 2 2 3 4 4 4 5 5 4 3 2 1 1 2 2 3 3 4 5 7 7 7 7 8 8 8 9 10 9 8 8 6 5 5 5 6 8 8 9 9
5 6 4 4 4 4 3 2 3 3 4 5 5 4 4 3 3 3 3 3 3 4 5 7 7 8 8 8 8 8 8 8 9 8 7 7 6 6 7 8 9 10 10 9
8 8 7 7 6 5 5 6 6 5 5 4 5 6 4 4 3 3 3 4 4 5 6 7 7 8 8 8 7 7 8 8 7 7 7 7 7 8 9 10 12 14 13 11
7 5 6 6 6 6 7 7 7 7 7 6 5 5 4 4 4 4 4 5 5 6 7 7 8 9 9 8 7 7 8 8 7 7 7 7 7 7 9 9 9 11 12 13
7 4 4 6 7 8 7 7 6 6 6 6 5 4 4 4 4 5 6 6 6 6 7 8 8 10 10 8 8 8 8 9 9 7 7 7 7 7 7 8 8 7 8 12
10 9 9 7 6 6 5 5 5 6 5 5 5 5 5 6 6 7 7 6 6 6 8 8 9 11 10 8 8 9 8 7 7 7 7 7 7 7 7 8 8 8 5 6
7 6 7 7 8 7 6 7 8 8 7 6 6 7 7 7 7 7 7 6 6 8 9 9 10 11 10 9 9 8 8 14 12 8 7 8 7 7 7 7 8 7 7 6
7 7 7 7 8 8 9 9 10 9 8 8 8 8 6 6 6 7 8 8 8 9 9 10 11 11 10 9 9 8 8 10 15 11 7 8 8 8 8 8 8 9 9 8
12 12 10 9 9 9 9 9 9 8 8 8 7 6 6 6 8 9 9 9 8 9 10 11 11 11 10 10 9 8 8 8 8 8 8 8 9 9 8 9 10 10 8 8
9 10 9 9 9 9 9 9 8 8 7 6 6 7 8 8 8 9 9 8 9 11 11 11 15 12 10 12 13 8 8 9 9 9 9 11 11 9 9 9 10 10 9 8
5 5 6 6 6 6 7 6 6 5 5 5 6 7 8 9 9 9 9 9 9 10 10 12 12 10 11 12 15 8 9 10 10 10 9 9 10 10 10 10 10 10 10 9
4 4 4 5 4 5 6 6 6 6 6 6 6 8 9 9 9 8 8 10 10 11 11 16 11 9 9 11 15 8 9 10 10 10 10 10 10 11 11 11 11 10 10 9
4 4 5 4 4 4 5 5 6 6 6 6 7 8 8 9 10 9 10 10 11 14 10 8 9 13 15 17 9 9 10 11 11 10 10 10 11 11 11 11 11 11 10 9
4 4 4 5 5 5 5 5 6 6 7 8 8 9 9 9 8 8 10 9 8 14 11 9 14 21 23 14 9 9 10 11 11 11 11 11 11 11 12 12 11 11 10 9
4 4 5 4 3 4 6 7 7 6 7 8 9 10 9 8 8 9 10 14 16 18 11 13 20 23 22 10 9 9 10 11 12 12 12 12 12 12 12 12 11 10 10 10
6 6 5 5 5 6 8 8 7 7 7 7 9 10 9 8 9 9 9 10 16 17 11 15 22 23 15 9 10 11 11 12 13 12 11 12 12 12 12 11 11 10 9 9
6 6 7 7 7 6 6 6 6 6 6 7 8 8 8 7 9 9 9 11 13 16 13 10 11 14 10 10 11 12 12 13 14 13 12 12 13 13 12 11 12 10 9 8
7 6 5 5 6 6 6 6 7 8 7 8 8 8 8 8 8 9 10 10 10 10 10 10 10 10 10 11 12 12 12 11 12 12 12 12 11 11 11 11 9 8 7 7
Wind_Direction
211 241 208 240 238 186 184 186 185 214 203 234 239 52 27 21 26 31 25 20 15 9 1 354 343 317 276 257 234 214 205 214 225 225 221 222 222 221 217 213 218 217 216 223
346 11 330 272 265 231 211 193 192 176 213 183 127 90 53 38 39 35 22 13 8 6 4 359 348 329 303 273 244 213 215 224 228 223 220 222 225 221 216 219 220 213 214 216
257 312 346 280 250 198 188 191 171 192 203 157 123 95 72 47 44 35 18 8 5 2 357 351 345 335 320 290 254 217 229 237 232 224 226 228 227 218 218 219 214 214 218 214
152 47 236 246 309 154 135 72 196 167 150 156 150 135 95 64 54 34 15 7 0 356 355 351 352 352 346 349 340 263 255 256 248 232 235 234 225 224 224 216 212 217 219 216
125 193 282 296 190 151 142 199 193 146 146 150 146 99 30 21 34 31 10 359 349 346 348 357 4 2 8 10 0 341 308 283 268 248 242 234 228 231 225 215 216 215 214 211
132 171 240 251 256 176 114 269 223 159 161 161 133 123 258 320 1 14 11 2 355 352 3 10 0 3 18 12 4 342 317 301 280 256 245 240 237 233 224 215 220 217 219 214
161 211 259 257 274 119 156 241 186 161 160 152 167 190 205 253 347 18 12 1 2 7 8 355 348 2 10 3 350 330 320 314 306 275 253 247 243 237 224 216 217 217 222 222
156 192 250 262 120 168 206 164 138 144 152 154 171 179 183 176 26 15 8 0 2 5 354 342 346 359 359 346 328 329 331 325 319 306 283 269 247 242 226 212 214 220 222 229
190 209 249 259 204 207 155 147 162 164 171 158 164 183 188 188 329 344 346 343 345 347 341 339 341 349 341 326 326 332 337 334 324 320 307 286 257 244 235 217 219 224 221 229
241 255 246 252 230 188 165 167 180 177 175 169 181 193 197 215 264 299 313 318 326 337 339 332 329 330 320 317 325 331 331 330 328 324 320 308 283 256 240 231 229 227 225 229
248 264 276 262 224 205 196 178 177 184 188 190 186 200 205 219 245 264 284 294 304 311 310 309 316 319 317 318 326 329 325 324 326 320 314 312 296 269 255 246 235 231 231 225
223 218 201 230 225 206 201 209 205 198 208 208 195 204 208 220 235 247 266 281 294 298 298 300 306 308 309 311 317 321 322 321 319 317 312 310 307 302 276 264 263 249 241 230
220 218 208 235 230 212 210 215 213 207 205 211 213 207 207 222 237 245 261 272 276 282 286 291 295 296 297 300 305 306 305 307 308 311 310 308 305 301 302 300 276 260 251 239
231 216 233 228 229 222 217 220 216 212 211 206 210 214 216 228 244 253 259 263 268 277 283 285 287 289 288 291 296 297 295 301 305 298 299 297 294 289 287 289 293 285 262 245
232 216 223 234 235 229 218 202 198 210 215 220 216 218 223 231 243 251 259 266 274 280 283 285 286 286 288 288 290 290 290 289 288 287 290 289 288 286 283 279 278 280 280 263
232 226 221 222 227 226 213 204 208 219 219 220 224 230 231 232 240 253 263 266 268 274 278 282 282 283 286 285 284 287 284 291 299 291 290 291 287 285 283 281 277 271 263 256
220 234 230 229 228 224 215 213 215 219 218 221 228 233 239 245 256 264 267 265 261 264 269 273 277 281 284 282 279 282 280 285 293 293 284 285 283 279 278 277 275 270 262 246
221 224 224 223 225 225 223 220 217 216 219 225 227 231 238 243 251 261 267 273 278 279 274 269 271 278 278 278 277 276 276 274 272 275 279 280 281 275 272 273 274 272 268 254
231 229 230 227 222 217 219 220 219 218 221 221 226 235 242 247 251 260 268 273 276 281 279 272 284 288 280 280 288 273 271 274 274 272 273 278 283 277 271 270 273 273 264 250
231 227 224 223 218 210 212 213 209 216 225 225 234 246 255 259 261 264 267 266 263 261 267 277 283 277 275 277 287 276 270 272 273 274 273 271 275 278 273 269 269 271 265 251
228 222 215 214 217 213 209 202 200 217 229 226 232 245 255 263 265 264 266 275 274 265 268 280 282 274 276 280 287 275 270 271 272 272 271 271 273 276 274 270 268 269 267 255
219 212 211 204 206 222 223 210 210 221 234 242 246 252 258 265 268 266 257 258 268 274 276 269 270 278 285 289 278 271 269 270 271 271 269 268 269 272 272 268 266 265 265 255
217 216 216 215 219 229 237 233 229 229 238 245 248 251 253 256 257 260 272 266 262 274 278 270 275 284 291 291 277 273 272 272 272 272 271 269 268 269 271 268 265 262 260 253
224 225 231 233 223 231 247 251 246 243 245 250 251 251 252 261 266 256 254 271 279 282 277 273 280 287 292 286 276 274 274 274 274 273 272 271 270 270 270 267 264 259 254 249
229 229 230 227 228 236 243 251 258 259 258 259 260 260 256 247 251 265 268 269 276 283 280 282 287 291 290 280 277 277 276 274 274 275 270 270 270 269 268 265 261 256 249 245
233 234 234 230 231 237 238 240 245 252 254 262 267 266 264 261 257 263 270 270 271 280 280 277 279 283 280 277 277 277 276 279 281 279 274 272 269 267 266 264 259 250 243 240
244 244 244 247 249 240 235 235 242 251 251 251 261 267 268 269 270 271 272 274 276 276 277 278 278 277 277 277 278 279 279 278 278 276 275 272 269 265 262 260 255 245 236 231
Height
1504 1502 1502 1503 1503 1505 1509 1513 1520 1516 1516 1511 1509 1508 1507 1505 1503 1500 1498 1496 1495 1493 1491 1489 1488 1488 1488 1488 1489 1489 1490 1491 1492 1493 1494 1495 1496 1497 1498 1498 1499 1499 1500 1500
1505 1503 1504 1505 1503 1504 1505 1506 1510 1511 1512 1507 1508 1507 1506 1505 1503 1501 1500 1499 1497 1494 1492 1490 1488 1486 1485 1485 1486 1486 1486 1487 1488 1490 1491 1491 1492 1493 1494 1495 1496 1496 1497 1497
1515 1510 1505 1510 1501 1500 1502 1502 1504 1509 1507 1506 1507 1507 1507 1506 1505 1504 1503 1501 1498 1496 1493 1491 1488 1486 1484 1483 1483 1483 1483 1484 1485 1486 1486 1487 1488 1489 1490 1490 1491 1492 1493 1494
1518 1512 1517 1506 1496 1496 1499 1501 1500 1500 1502 1503 1505 1507 1507 1507 1506 1505 1503 1502 1499 1497 1494 1492 1489 1486 1484 1482 1481 1480 1480 1481 1481 1482 1482 1483 1483 1484 1485 1486 1486 1487 1488 1489
1523 1519 1514 1503 1496 1497 1498 1501 1499 1500 1501 1503 1504 1506 1507 1507 1506 1505 1504 1502 1500 1498 1495 1492 1489 1486 1483 1481 1480 1478 1478 1477 1477 1477 1477 1478 1478 1478 1479 1480 1481 1482 1483 1484
1522 1517 1517 1502 1493 1493 1497 1503 1498 1498 1500 1502 1503 1509 1509 1507 1506 1505 1503 1502 1500 1497 1495 1491 1488 1486 1483 1480 1478 1476 1475 1474 1473 1473 1472 1472 1472 1473 1474 1474 1475 1476 1477 1478
1520 1517 1509 1496 1492 1493 1506 1503 1496 1497 1499 1500 1502 1505 1506 1505 1504 1503 1502 1500 1498 1496 1493 1490 1488 1485 1482 1479 1477 1474 1472 1471 1469 1468 1467 1467 1467 1467 1468 1468 1469 1470 1471 1472
1519 1518 1510 1493 1492 1496 1496 1494 1494 1496 1498 1500 1501 1502 1503 1503 1502 1501 1500 1498 1496 1494 1492 1489 1486 1483 1480 1477 1475 1472 1469 1467 1464 1463 1462 1461 1460 1460 1461 1462 1462 1463 1464 1465
1504 1502 1494 1491 1491 1492 1492 1493 1494 1495 1497 1498 1499 1500 1500 1500 1500 1499 1498 1496 1494 1492 1490 1487 1484 1481 1478 1475 1472 1469 1466 1463 1460 1458 1456 1455 1454 1453 1454 1454 1455 1455 1456 1457
1497 1492 1490 1489 1489 1490 1491 1492 1493 1494 1495 1496 1497 1497 1497 1497 1497 1496 1495 1493 1492 1489 1487 1485 1482 1479 1476 1473 1469 1466 1462 1459 1456 1453 1450 1449 1448 1447 1446 1446 1447 1448 1449 1449
1494 1489 1487 1486 1487 1488 1489 1490 1491 1492 1493 1493 1494 1494 1494 1494 1493 1493 1492 1490 1488 1486 1484 1482 1479 1476 1473 1469 1466 1462 1459 1455 1452 1449 1446 1443 1442 1441 1440 1439 1440 1440 1440 1442
1487 1482 1483 1482 1484 1485 1486 1486 1487 1488 1489 1489 1490 1490 1490 1490 1490 1489 1488 1486 1485 1483 1480 1478 1475 1472 1469 1466 1463 1458 1454 1451 1448 1444 1441 1438 1435 1433 1432 1432 1432 1432 1433 1434
1476 1477 1478 1478 1480 1481 1481 1482 1483 1484 1484 1485 1485 1486 1486 1486 1485 1485 1484 1482 1480 1478 1476 1474 1471 1468 1465 1462 1458 1454 1451 1447 1443 1440 1437 1433 1430 1427 1424 1423 1423 1423 1424 1425
1473 1474 1473 1474 1475 1476 1477 1478 1479 1479 1480 1480 1481 1481 1481 1481 1481 1480 1479 1477 1476 1474 1471 1469 1466 1463 1460 1457 1453 1449 1446 1442 1439 1435 1432 1428 1425 1422 1419 1417 1414 1414 1415 1416
1467 1468 1468 1469 1470 1471 1471 1473 1473 1474 1475 1475 1476 1476 1476 1476 1475 1475 1474 1472 1470 1468 1466 1463 1460 1457 1454 1451 1447 1444 1440 1436 1433 1429 1426 1423 1420 1416 1414 1411 1409 1407 1406 1407
1461 1462 1463 1463 1464 1465 1466 1467 1468 1468 1469 1470 1471 1471 1471 1471 1470 1469 1468 1466 1464 1462 1459 1457 1453 1450 1447 1444 1441 1437 1434 1430 1427 1423 1420 1416 1413 1410 1407 1404 1402 1400 1399 1399
1455 1455 1456 1457 1458 1458 1459 1461 1462 1463 1464 1464 1465 1465 1465 1465 1464 1463 1461 1460 1458 1455 1453 1450 1446 1443 1440 1437 1434 1430 1426 1423 1420 1417 1413 1410 1406 1403 1400 1397 1395 1393 1391 1391
1448 1449 1450 1451 1452 1452 1454 1455 1456 1457 1458 1459 1459 1459 1459 1458 1457 1456 1454 1452 1450 1447 1445 1443 1439 1436 1433 1430 1426 1422 1419 1415 1412 1409 1405 1402 1399 1396 1393 1390 1387 1385 1383 1383
1442 1443 1444 1445 1446 1447 1448 1449 1450 1451 1452 1453 1454 1453 1453 1452 1450 1449 1447 1445 1442 1439 1436 1435 1431 1428 1425 1422 1418 1414 1411 1407 1404 1401 1398 1394 1391 1388 1385 1382 1379 1377 1376 1375
1437 1439 1439 1440 1441 1442 1442 1443 1445 1446 1447 1448 1447 1447 1446 1445 1444 1442 1439 1437 1434 1432 1429 1426 1423 1419 1416 1413 1410 1406 1402 1399 1395 1392 1389 1386 1382 1379 1377 1374 1371 1369 1368 1366
1433 1434 1435 1435 1436 1437 1438 1438 1439 1440 1441 1441 1441 1440 1439 1438 1436 1434 1431 1428 1426 1424 1421 1418 1414 1411 1408 1404 1401 1397 1394 1390 1387 1383 1380 1376 1373 1370 1367 1365 1362 1360 1359 1357
1430 1430 1431 1431 1432 1432 1433 1434 1435 1435 1435 1435 1434 1433 1432 1430 1429 1426 1424 1421 1418 1416 1412 1409 1406 1403 1399 1396 1392 1388 1384 1381 1377 1374 1370 1367 1364 1360 1357 1355 1352 1351 1349 1348
1426 1426 1427 1428 1428 1428 1429 1429 1429 1429 1429 1428 1427 1426 1425 1423 1421 1418 1415 1413 1410 1407 1404 1400 1397 1394 1390 1387 1383 1378 1374 1371 1367 1364 1360 1357 1354 1350 1347 1345 1342 1341 1340 1339
1422 1422 1423 1423 1424 1423 1423 1423 1423 1423 1422 1422 1421 1419 1418 1415 1413 1411 1408 1405 1402 1398 1394 1391 1388 1384 1381 1377 1372 1368 1364 1360 1356 1353 1349 1346 1343 1340 1337 1334 1332 1330 1330 1330
1417 1417 1417 1417 1417 1417 1417 1417 1417 1416 1415 1414 1413 1412 1410 1408 1405 1402 1399 1396 1393 1389 1385 1381 1378 1374 1371 1366 1362 1357 1353 1349 1345 1341 1338 1335 1332 1329 1326 1323 1322 1320 1320 1320
1411 1411 1411 1410 1410 1410 1410 1410 1410 1409 1408 1406 1405 1404 1402 1400 1397 1394 1391 1387 1384 1380 1376 1372 1368 1364 1360 1355 1351 1347 1342 1338 1334 1330 1327 1323 1320 1318 1315 1313 1311 1311 1310 1311
1404 1404 1404 1403 1403 1403 1403 1403 1402 1401 1400 1398 1396 1395 1393 1391 1389 1386 1383 1379 1375 1371 1367 1363 1358 1354 1349 1345 1341 1336 1332 1328 1323 1319 1316 1312 1309 1307 1305 1303 1302 1301 1302 1303